Location: Budapest
(47.4979°N, 19.0402°E)
Time: 07:29:02
(UTC+01:00)

Tiangong 2 - Pass Details

Date: 14 October 2017
Orbit: 386 x 390 km, 42.8° (Epoch: 11 December)

Event Time Altitude Azimuth Distance (km) Brightness Sun altitude
Exits shadow 04:52:17 26° 139° (SE) 813 2.9 -22.4°
Drops below altitude 10° 04:54:17 10° 107° (ESE) 1,423 4.8 -22.1°
Sets 04:56:30 0° 96° (E) 2,281 6.3 -21.7°
